Theta_e
345 342 333 325 310 311 308 311 319 316 317 324 326 323 319 320 317 311 334 342 346 345 346 348 353 352 351 352 351 351 351 350 349 348 348 347 347 347 347 348 349 351 353 351 353 355 355 354 354
339 332 324 317 306 301 304 314 316 319 323 328 327 324 322 318 327 327 330 340 346 346 346 347 351 351 351 350 350 350 350 350 349 348 347 346 346 345 345 346 346 348 351 351 350 352 352 352 353
332 329 317 310 305 302 306 317 318 322 326 325 323 328 326 323 326 328 335 342 344 343 345 346 350 350 349 349 349 348 348 348 347 346 345 345 344 344 344 343 343 343 345 347 350 349 349 349 349
322 320 317 307 306 311 314 318 321 321 323 325 324 320 329 336 334 335 341 343 340 340 343 345 348 347 346 346 345 345 344 344 344 344 344 341 342 343 343 342 342 342 341 341 342 344 345 346 346
323 314 305 304 308 314 319 320 323 320 321 321 323 319 323 335 340 341 340 340 336 335 335 338 344 343 342 340 339 338 338 337 337 336 337 338 342 342 342 343 343 343 343 343 342 340 340 341 341
312 312 302 302 309 315 318 323 322 320 321 321 321 322 324 335 335 337 336 334 335 333 332 329 339 340 339 338 337 337 337 336 335 336 337 337 337 337 338 341 342 341 341 342 343 343 343 341 339
309 306 303 307 309 312 318 324 320 320 318 320 324 319 326 329 336 337 335 334 332 325 321 320 320 326 333 335 334 335 335 336 337 334 333 332 334 335 337 338 339 340 340 340 340 341 341 342 341
312 312 308 306 308 311 322 323 325 323 321 329 328 317 321 329 336 336 334 319 314 316 317 315 316 317 318 318 332 331 331 330 331 331 330 331 329 329 332 332 333 335 334 335 338 339 339 339 340
316 304 302 305 308 314 322 319 324 327 322 324 325 326 329 334 334 326 316 316 316 318 316 317 317 317 318 318 322 322 326 327 327 324 327 318 318 319 319 326 328 328 330 331 332 334 336 338 338
311 303 306 312 314 317 320 320 321 321 320 320 323 328 330 329 324 317 315 316 316 316 316 317 318 317 316 320 315 314 315 314 316 315 314 314 312 317 317 318 322 322 324 325 326 329 329 328 331
314 307 313 316 321 323 318 318 322 318 315 321 319 320 323 321 318 317 318 316 315 317 318 316 315 314 313 313 314 314 313 312 314 313 311 311 311 311 310 310 312 313 318 316 317 320 320 320 325
313 319 318 321 322 320 317 318 316 317 315 323 323 323 321 317 316 317 315 316 315 318 317 314 311 310 310 311 310 311 312 311 311 311 310 308 308 308 308 308 309 310 310 312 313 316 319 319 319
314 318 319 320 320 319 320 316 315 314 315 318 319 321 316 316 317 319 317 317 318 316 315 312 311 309 309 309 309 309 310 310 310 310 309 308 308 307 308 308 308 308 308 309 309 313 316 317 318
316 318 318 318 317 318 315 314 316 317 316 315 316 315 316 317 318 318 318 317 317 315 314 312 310 310 310 308 307 308 309 310 309 309 309 310 308 307 307 307 308 308 308 309 309 311 313 315 316
317 310 314 316 318 315 317 311 312 317 315 312 313 315 317 317 318 318 318 316 316 316 316 312 310 310 309 308 307 307 309 309 309 308 309 310 309 309 308 307 308 309 309 309 310 311 312 314 314
308 308 303 305 316 317 316 305 314 318 315 312 312 315 316 317 318 319 320 317 317 316 312 311 312 310 309 308 308 308 308 308 308 308 307 309 310 311 310 309 309 309 309 309 309 309 310 310 311
303 296 299 306 313 316 314 307 315 319 316 312 311 313 314 315 316 318 320 317 316 313 312 309 309 309 309 308 308 308 308 308 309 308 307 309 310 313 310 309 309 310 309 309 309 309 309 308 309
296 297 301 301 310 312 308 309 315 317 317 310 310 312 313 314 315 320 320 318 317 313 314 310 309 308 308 307 308 309 309 309 308 308 307 309 310 312 311 310 310 310 309 309 309 308 309 308 309
304 302 301 303 309 307 307 309 312 317 317 311 312 312 312 314 318 322 320 320 318 315 313 311 308 308 307 306 306 307 306 307 307 308 309 309 310 311 311 310 310 310 309 309 309 308 308 308 308
305 302 301 306 309 307 307 306 310 311 311 315 313 312 312 315 317 319 319 319 318 315 314 311 309 308 307 306 306 307 306 306 306 306 309 310 310 311 311 311 310 309 308 308 308 307 306 306 308
301 301 301 302 306 307 304 302 305 310 310 313 312 313 313 316 315 316 318 319 319 315 312 310 308 308 308 307 307 307 307 306 306 307 308 309 309 310 310 310 310 309 308 307 307 307 306 305 308
297 306 307 303 299 293 301 288 300 305 306 307 311 310 310 314 315 316 318 319 317 315 313 310 309 308 308 308 306 305 304 303 305 305 306 307 309 309 311 311 309 309 309 309 308 310 309 307 304
301 309 305 303 297 294 295 291 294 302 301 304 307 309 309 311 312 314 315 316 314 316 311 310 310 307 308 307 306 305 305 305 306 305 305 306 307 309 310 310 309 309 309 310 310 309 308 307 307
310 302 297 297 292 287 293 291 290 296 301 305 308 309 309 310 312 316 317 317 316 311 310 310 309 307 306 306 306 305 305 305 305 306 305 306 306 308 309 309 309 309 309 311 312 312 312 312 308
301 292 287 285 286 285 295 289 291 300 305 306 306 308 311 312 312 314 313 311 309 309 309 310 307 306 305 306 305 307 307 306 306 306 305 305 305 307 308 308 308 309 309 310 313 312 312 311 309
296 292 287 282 283 286 294 288 292 301 306 307 308 308 310 311 310 311 312 310 307 309 309 309 307 305 305 305 305 309 307 307 307 307 306 306 305 307 308 309 309 310 309 310 310 309 313 314 312
297 294 295 290 289 286 290 295 299 302 304 307 306 307 307 308 309 309 310 308 305 309 308 308 306 305 304 304 305 309 308 308 308 308 307 307 307 308 310 308 309 309 310 311 310 310 310 312 313
300 300 290 288 283 282 288 289 289 295 297 304 305 305 306 307 308 308 307 307 307 308 307 306 306 304 304 305 305 310 309 309 309 308 308 308 308 308 307 308 309 309 311 311 310 311 313 313 312
295 293 293 291 288 283 283 287 296 297 297 300 302 304 304 306 307 308 309 307 307 306 305 304 306 304 304 305 305 308 310 308 309 309 310 310 310 308 307 308 309 308 310 312 312 313 313 312 311
296 294 292 287 286 287 286 285 297 296 296 297 298 302 302 304 307 308 307 307 306 304 304 304 306 305 306 305 306 308 310 309 308 308 310 311 310 310 309 309 307 308 310 309 310 311 310 311 310
Wind_Speed
3 3 3 4 6 6 3 3 4 5 4 2 5 4 7 5 4 4 2 4 5 6 5 6 14 15 14 13 12 12 12 12 12 12 12 12 12 12 11 11 11 10 7 4 6 6 7 7 7
2 2 5 3 7 5 3 4 9 11 8 7 8 5 7 6 5 3 1 4 7 6 5 6 13 14 14 13 13 14 14 13 12 12 12 12 12 12 12 13 12 12 12 8 5 8 6 6 7
2 4 5 5 4 4 4 12 12 6 5 4 4 6 4 3 3 3 1 4 8 7 6 9 15 16 15 14 14 14 14 13 13 13 12 11 10 10 10 11 11 12 11 12 13 8 6 4 4
3 5 5 6 5 3 3 5 7 3 5 8 3 6 5 5 2 5 4 9 10 8 7 13 17 16 16 16 15 14 13 12 12 11 11 11 9 9 9 9 9 9 9 9 9 9 8 6 5
4 4 6 4 4 3 3 2 1 4 4 4 3 4 5 4 10 8 8 9 10 8 8 8 15 15 16 15 15 15 14 13 13 12 10 12 13 12 12 10 10 10 10 10 9 8 8 7 7
5 3 6 2 2 4 3 3 10 12 12 7 8 5 4 3 7 7 9 8 7 8 7 8 14 16 17 16 16 14 13 12 13 12 11 12 13 14 14 14 13 12 13 12 11 11 9 7 7
7 5 2 2 2 3 6 6 3 4 7 5 7 5 5 5 8 9 8 7 8 7 7 6 7 10 16 18 17 13 13 11 11 12 11 11 12 14 16 17 16 15 15 14 13 12 10 9 5
6 5 4 2 4 1 9 4 4 5 3 1 3 6 7 6 10 10 9 8 8 8 7 7 8 8 7 7 16 16 15 15 13 11 11 12 13 14 14 14 15 16 15 15 14 14 11 10 7
2 6 2 5 6 4 6 5 2 2 4 3 5 3 9 11 10 10 8 6 6 8 8 7 6 7 6 7 9 12 14 13 12 10 11 8 4 5 9 12 14 14 15 16 16 16 14 11 8
5 5 8 4 4 5 5 4 7 6 6 3 7 12 12 11 9 9 6 6 5 5 5 5 6 6 5 4 5 5 5 4 5 5 6 4 5 5 7 10 13 13 12 13 15 15 15 12 4
2 3 4 4 5 11 6 5 1 8 6 5 12 13 11 9 8 8 7 7 6 5 5 5 6 5 6 5 3 2 2 3 3 6 5 5 4 4 4 3 4 4 10 5 7 7 5 6 3
7 8 5 6 5 6 4 4 4 4 4 12 11 14 8 9 7 7 7 7 7 7 5 4 5 6 6 3 3 3 2 2 3 4 5 3 3 4 4 3 4 4 3 5 5 4 6 6 5
6 4 8 12 14 9 8 7 5 4 4 11 10 9 9 8 6 4 6 5 7 7 4 5 6 6 4 6 4 3 3 3 2 3 3 3 3 3 3 4 3 4 4 4 5 5 5 5 6
4 10 6 7 6 5 7 3 2 4 7 9 9 9 8 6 5 4 4 6 6 5 4 2 5 5 5 4 5 4 3 2 3 2 3 4 2 2 2 3 4 4 3 4 4 5 6 5 5
6 7 5 3 2 4 4 5 4 8 7 7 8 7 10 11 8 5 2 7 9 5 5 2 4 3 4 4 5 3 3 3 2 3 4 4 3 3 3 3 4 4 4 5 5 5 5 5 5
5 5 3 1 2 2 4 1 6 7 8 7 7 7 6 8 10 9 5 6 6 5 4 4 3 3 2 3 2 3 2 3 2 2 3 4 5 4 3 3 3 4 4 4 4 4 5 4 4
3 1 2 3 2 4 2 3 7 7 6 8 8 5 8 8 6 7 5 6 7 4 4 2 2 0 2 3 3 3 3 2 1 2 3 5 4 3 2 3 3 4 3 3 3 3 3 4 5
3 5 5 4 4 8 6 6 7 5 6 9 9 9 8 7 8 4 8 7 4 4 3 3 3 2 6 4 3 2 3 3 2 2 3 5 3 4 3 3 4 4 4 4 3 3 3 4 5
6 7 7 2 4 7 9 9 8 1 7 11 8 7 10 8 6 3 2 2 1 4 4 4 2 3 4 3 3 3 3 3 2 3 4 5 4 4 4 3 4 4 4 5 5 3 3 3 2
7 9 4 3 5 7 9 8 7 6 6 3 11 9 6 6 4 3 5 5 6 4 5 6 1 2 3 1 1 2 2 3 3 3 5 4 5 5 5 4 4 5 5 5 4 2 2 2 2
3 6 6 7 7 6 6 3 2 2 2 1 2 1 3 5 5 5 6 10 11 8 6 4 2 2 1 1 2 2 1 2 3 3 3 3 5 5 5 5 4 5 3 4 4 3 3 2 2
2 1 13 16 5 4 0 2 2 1 2 3 4 6 6 6 4 4 8 9 7 8 5 3 4 3 2 3 2 1 2 2 2 3 3 5 5 5 4 4 4 4 3 4 4 4 3 3 5
3 6 11 5 6 5 7 5 4 1 5 4 5 8 8 7 6 7 8 7 9 6 5 5 4 3 3 3 3 3 4 3 3 3 5 5 5 5 5 4 5 5 4 4 4 5 3 3 4
12 13 9 6 3 4 3 3 5 3 3 5 4 6 8 7 7 8 7 8 7 3 4 5 4 3 4 4 4 5 6 6 4 4 4 4 3 4 4 4 4 4 4 5 5 5 5 4 4
7 5 4 3 4 3 3 3 6 4 4 4 8 8 7 7 6 7 8 7 3 6 6 3 3 5 4 5 6 6 6 6 6 5 3 5 3 3 6 5 6 5 5 6 6 5 5 3 3
2 6 5 4 3 2 4 1 4 5 2 4 5 5 3 6 7 7 6 6 5 1 6 4 4 6 5 5 7 5 5 3 3 4 3 3 3 4 5 5 5 6 6 6 5 3 3 4 4
1 5 3 8 3 3 2 3 6 6 4 3 6 5 6 7 6 7 8 4 4 7 6 6 5 5 5 6 6 5 5 5 4 5 4 3 4 3 5 5 5 6 5 5 5 4 4 4 3
7 4 1 4 4 2 3 3 3 7 7 6 6 7 8 7 7 6 5 5 5 9 5 5 6 6 6 6 5 5 5 4 4 4 5 5 5 3 4 5 4 5 5 5 5 4 3 3 3
6 4 6 6 3 5 3 3 4 7 7 9 11 11 10 9 7 6 8 6 5 2 4 6 5 6 6 5 5 6 6 4 4 5 5 4 4 4 5 4 4 4 6 6 4 4 5 4 5
2 2 4 5 2 2 4 2 8 7 9 11 13 14 16 8 8 7 7 7 6 6 6 6 5 6 5 6 6 6 6 5 5 6 5 5 5 4 5 4 3 4 5 5 5 5 4 5 6
Wind_Direction
130 164 162 47 59 73 65 326 96 94 53 357 50 27 94 41 17 103 298 357 63 45 59 73 79 74 69 69 71 73 72 69 64 57 51 49 43 41 35 34 33 27 51 82 85 59 89 105 107
127 326 46 74 75 64 9 327 75 71 110 86 80 92 48 70 64 79 29 2 67 66 56 61 81 82 76 68 65 62 60 61 62 59 51 44 36 30 27 24 24 26 18 26 63 68 66 85 99
125 48 72 82 87 104 89 65 93 58 25 57 90 51 43 33 77 104 125 62 65 55 54 60 68 67 65 62 56 51 48 46 46 43 41 37 33 30 22 21 19 17 22 13 20 32 37 58 78
21 18 38 75 91 37 75 36 360 307 28 38 107 66 82 13 94 112 116 76 66 51 49 58 58 56 57 55 52 50 47 44 41 38 31 25 8 20 14 10 10 8 11 13 15 14 22 27 28
38 59 60 65 96 119 157 283 173 80 94 358 344 93 69 56 94 98 84 75 76 53 37 57 66 63 61 58 54 48 44 42 39 34 32 22 35 19 2 354 355 356 353 350 352 357 2 9 9
47 90 57 65 119 135 93 97 105 95 110 106 96 96 76 81 97 93 87 80 73 70 49 43 52 53 48 43 39 40 36 31 31 23 39 38 41 26 17 10 3 356 352 346 343 339 336 347 357
113 78 103 83 20 129 132 156 65 98 118 79 150 111 131 116 118 108 93 81 72 60 60 49 43 47 48 51 43 43 32 26 28 32 42 35 39 34 30 27 20 10 1 348 341 337 332 322 335
101 89 116 182 188 76 135 89 67 68 77 41 354 172 163 157 123 103 85 71 62 47 43 43 39 38 43 31 45 47 44 36 40 53 57 53 43 37 28 31 20 17 8 3 356 340 330 326 320
121 68 185 207 144 151 141 122 52 117 90 35 357 20 112 127 111 91 89 73 59 53 43 42 44 42 32 33 24 25 26 29 49 45 52 47 37 37 27 22 22 10 2 359 358 357 349 342 13
74 108 210 142 146 138 112 97 138 151 147 95 96 95 118 126 119 117 115 104 88 73 56 49 51 45 42 49 26 13 14 18 43 50 46 39 33 25 31 17 12 6 357 353 349 351 351 353 359
124 127 60 33 97 122 118 105 174 133 182 143 146 131 135 131 121 130 129 119 117 106 72 42 44 38 31 14 2 17 10 25 38 47 41 38 27 17 11 4 359 346 350 344 343 338 342 331 346
78 39 62 115 80 83 92 81 66 30 328 118 145 146 139 131 133 140 141 139 131 92 84 58 47 40 29 19 17 3 7 51 69 46 37 31 24 24 5 356 348 344 345 334 340 330 321 322 318
86 121 58 72 77 75 76 67 84 73 60 103 125 133 134 135 127 161 161 133 105 103 104 49 41 46 40 35 13 18 24 80 94 55 31 37 31 8 356 340 339 335 334 336 329 322 314 310 317
94 91 103 55 85 87 107 137 71 71 106 101 119 131 132 113 135 134 152 107 94 119 123 89 61 57 36 36 24 22 51 37 41 22 4 18 18 4 336 332 328 325 330 317 317 310 310 308 308
153 82 87 65 91 123 150 47 70 138 110 114 111 94 76 45 21 256 111 125 145 192 150 107 77 61 43 28 14 13 14 4 352 3 342 338 353 350 355 314 323 322 325 319 325 317 314 309 312
75 70 133 133 143 149 17 39 126 155 141 119 102 86 120 180 211 255 147 131 159 186 128 65 40 59 46 41 358 5 355 343 327 322 331 340 335 348 328 316 323 317 319 330 326 313 305 309 307
6 168 79 49 4 108 60 116 149 173 136 106 98 165 203 215 253 266 145 166 186 153 120 121 295 196 45 31 9 347 334 353 326 320 341 329 320 313 303 317 314 323 327 320 310 300 277 293 299
157 136 73 116 7 53 79 84 156 167 143 139 181 196 200 264 245 235 171 185 184 131 163 190 247 338 24 17 357 338 340 342 359 312 293 306 313 324 335 330 327 330 328 322 325 300 290 252 263
106 82 99 79 126 83 85 69 36 253 221 167 209 203 222 221 259 204 107 194 125 197 195 239 278 3 38 15 359 343 328 323 302 298 312 321 324 324 335 330 323 323 319 303 307 294 294 295 242
101 113 92 68 66 89 99 74 58 47 14 134 199 230 253 259 247 152 162 10 287 250 225 238 253 316 41 32 268 238 280 290 281 299 318 341 339 322 319 321 309 308 310 316 311 282 284 266 280
130 141 184 149 104 40 109 105 134 188 119 47 280 278 243 265 231 174 166 212 229 232 225 228 233 322 305 312 323 331 324 304 313 321 314 330 323 321 315 297 293 297 296 304 314 299 251 278 283
305 177 138 139 121 152 202 176 202 226 280 220 209 246 234 254 243 199 215 252 241 240 208 178 221 256 311 358 336 284 245 274 264 280 289 309 315 309 310 312 314 304 311 319 314 311 266 234 271
199 103 129 100 82 107 359 78 264 327 320 321 223 219 225 230 233 230 229 245 244 224 188 194 214 263 299 313 275 277 280 250 283 302 311 307 305 309 315 323 314 324 328 309 299 294 276 233 257
107 87 56 59 91 51 295 115 303 294 288 310 301 245 223 229 248 229 238 250 256 145 136 178 218 272 291 290 298 283 279 286 295 301 305 305 297 321 315 322 333 319 322 316 308 303 289 282 259
86 62 32 346 12 224 281 75 231 266 243 239 278 278 245 229 228 234 241 242 201 210 195 178 205 271 294 302 299 285 273 274 267 275 282 307 323 311 315 329 335 325 324 312 310 307 294 319 297
220 145 156 248 190 237 341 25 270 251 255 267 281 291 286 229 232 233 254 244 245 195 239 212 225 261 297 297 289 294 299 275 276 270 278 281 282 287 297 309 314 321 325 321 321 294 296 310 306
337 52 158 106 30 79 279 279 341 2 343 326 341 339 302 276 272 260 238 271 166 246 200 211 227 253 274 273 286 297 293 304 299 298 282 288 284 282 290 310 322 328 331 330 330 310 332 323 340
92 145 67 24 130 135 328 327 259 339 327 323 299 297 299 290 276 298 334 266 226 220 206 210 225 241 262 275 283 279 280 289 287 292 288 305 303 288 310 323 336 330 328 323 337 324 328 9 323
348 29 58 108 100 143 157 273 327 296 331 342 341 336 320 308 318 286 269 242 249 293 223 227 232 244 265 273 275 276 267 273 275 274 275 277 283 291 292 306 313 324 326 321 340 323 328 12 346
66 95 106 113 193 77 122 248 342 347 31 26 12 7 6 342 321 303 308 301 270 247 233 236 244 241 245 262 273 265 262 248 262 273 270 261 268 286 278 283 304 309 317 323 350 348 4 11 8